Keps
Threads by month
- ----- 2024 -----
- December
- November
- October
- September
- August
- July
- June
- May
- April
- March
- February
- January
- ----- 2023 -----
- December
- November
- October
- September
- August
- July
- June
- May
- April
- March
- February
- January
- ----- 2022 -----
- December
- November
- October
- September
- August
- July
- June
- May
- April
- March
- February
- January
- ----- 2021 -----
- December
- November
- October
- September
- August
- July
- June
- May
- April
- March
- February
- January
- ----- 2020 -----
- December
- November
- October
- September
- August
- July
- June
- May
- April
- March
- February
- January
- ----- 2019 -----
- December
- November
- October
- September
- August
- July
- June
- May
- April
- March
- February
- January
- ----- 2018 -----
- December
- November
- October
- September
- August
- July
- June
- May
- April
- March
- February
- January
- ----- 2017 -----
- December
- November
- October
- September
- August
- July
- June
- May
- April
- March
- February
- January
- ----- 2016 -----
- December
- November
- October
- September
- August
- July
- June
- May
- April
- March
- February
- January
- ----- 2015 -----
- December
- November
- October
- September
- August
- July
- June
- May
- April
- March
- February
- January
- ----- 2014 -----
- December
- November
- October
- September
- August
- July
- June
- May
- April
- March
- February
- January
- ----- 2013 -----
- December
- November
- October
- September
- August
- July
- June
- May
- April
- March
- February
- January
- ----- 2012 -----
- December
- November
- October
- September
- August
- July
- June
- May
- April
- March
- February
- January
- ----- 2011 -----
- December
- November
- October
- September
- August
- July
- June
- May
- April
- March
- February
- January
- ----- 2010 -----
- December
- November
- October
- September
- August
- July
- June
- May
- April
- March
- February
- January
- ----- 2009 -----
- December
- November
- October
- September
- August
- July
- June
- May
- April
- March
- February
- January
- ----- 2008 -----
- December
- November
- October
- September
- August
- July
- June
- May
- April
- March
- February
- January
- ----- 2007 -----
- December
- November
- October
- September
- August
- July
- June
- May
- April
- March
- February
- January
- ----- 2006 -----
- December
- November
- October
- September
January 2013
- 1 participants
- 9 discussions
SB KEPS @ AMSAT $ORB13024.N
2Line Orbital Elements 13024.AMSAT
HR AMSAT ORBITAL ELEMENTS FOR AMATEUR SATELLITES IN NASA FORMAT
FROM WA5QGD FORT WORTH,TX January 24, 2013
BID: ORB13024.N
DECODE 2-LINE ELSETS WITH THE FOLLOWING KEY:
1 AAAAAU 00 0 0 BBBBB.BBBBBBBB .CCCCCCCC 00000-0 00000-0 0 DDDZ
2 AAAAA EEE.EEEE FFF.FFFF GGGGGGG HHH.HHHH III.IIII JJ.JJJJJJJJKKKKKZ
KEY: A-CATALOGNUM B-EPOCHTIME C-DECAY D-ELSETNUM E-INCLINATION F-RAAN
G-ECCENTRICITY H-ARGPERIGEE I-MNANOM J-MNMOTION K-ORBITNUM Z-CHECKSUM
TO ALL RADIO AMATEURS BT
AO-07
1 07530U 74089B 13023.89388451 -.00000063 00000-0 -12238-3 0 5893
2 07530 101.4208 018.7045 0011770 209.0058 181.9725 12.53594304747702
FO-29
1 24278U 96046B 13024.81257650 -.00000036 00000-0 -13022-5 0 335
2 24278 098.5763 102.4368 0350526 175.4573 184.9887 13.52995619811926
SO-33
1 25509U 98061B 13024.55332575 .00000260 00000-0 39778-4 0 4182
2 25509 031.4310 160.7722 0351659 340.5655 093.8201 14.28954756744332
RS-22
1 27939U 03042A 13024.55384300 .00000343 00000-0 73329-4 0 1087
2 27939 097.7980 219.8949 0012415 285.6780 074.3063 14.64302165498278
VO-52
1 28650U 05017B 13024.12543384 .00000714 00000-0 92321-4 0 3250
2 28650 097.5792 050.0847 0027080 036.9433 323.3585 14.83530247417728
HO-68
1 36122U 09072B 13024.70060363 -.00000044 00000-0 00000 0 0 2213
2 36122 100.3289 085.2630 0007624 326.0641 033.9979 13.16301669149532
UO-11
1 14781U 84021B 13024.72086489 .00000295 00000-0 45065-4 0 845
2 14781 097.9230 087.9609 0009461 043.3909 316.8047 14.80736716552701
AO-16
1 20439U 90005D 13024.78473275 .00000065 00000-0 39922-4 0 6598
2 20439 098.4587 328.2497 0010360 217.7280 174.9390 14.32133494201711
LO-19
1 20442U 90005G 13023.87417101 .00000071 00000-0 42094-4 0 5913
2 20442 098.4265 329.6164 0011415 211.4285 221.6564 14.32347368201778
AO-27
1 22825U 93061C 13024.78544971 .00000057 00000-0 39368-4 0 2979
2 22825 098.6041 330.4472 0008071 357.5070 034.8431 14.29528759 8143
IO-26
1 22826U 93061D 13023.90358654 .00000061 00000-0 40732-4 0 525
2 22826 098.5980 329.8939 0008514 352.7208 039.0201 14.29809087 8145
GO-32
1 25397U 98043D 13023.92705823 -.00000071 00000-0 -13223-4 0 9811
2 25397 098.3923 358.1089 0001532 037.9893 322.1378 14.23318475755423
NO-44
1 26931U 01043C 13024.14890658 -.00000166 00000-0 -32338-4 0 2430
2 26931 067.0519 270.8145 0004631 266.2529 093.8034 14.29881708590834
SO-50
1 27607U 02058C 13024.36132811 .00000387 00000-0 80042-4 0 9752
2 27607 064.5591 341.9328 0064182 202.3061 157.5258 14.72744727542536
CO-55
1 27844U 03031E 13023.61051991 .00000140 00000-0 84527-4 0 5624
2 27844 098.7031 034.7833 0008747 309.5089 198.4563 14.21150687496193
CO-57
1 27848U 03031J 13024.56901672 .00000107 00000-0 69646-4 0 5115
2 27848 098.7117 035.1658 0008679 312.7322 193.5208 14.20885789496269
AO-51
1 28375U 04025K 13024.86075567 .00000164 00000-0 61394-4 0 4690
2 28375 098.1794 346.2239 0084278 089.3248 271.7600 14.41059667450697
CP3
1 31129U 07012N 13024.51094135 .00000274 00000-0 71688-4 0 3737
2 31129 097.8869 025.3492 0100889 154.0291 206.6019 14.53436989306126
CO-65
1 32785U 08021C 13024.74457542 .00000730 00000-0 94842-4 0 5340
2 32785 097.7716 086.2625 0015452 061.9187 085.6669 14.83549817256601
PRISM
1 33493U 09002B 13024.81624430 .00002554 00000-0 30412-3 0 4726
2 33493 098.1962 177.2743 0017358 299.8581 060.0882 14.85180907216631
SOHLA-1
1 33496U 09002E 13024.53014951 .00000201 00000-0 41607-4 0 9506
2 33496 098.1205 141.0746 0007513 066.2054 350.4242 14.70174227214769
SO-67
1 35870U 09049F 13024.87249105 .00003320 00000-0 13268-3 0 7293
2 35870 097.2090 058.7663 0003669 097.7167 027.9570 15.25779474186396
TISAT-1
1 36799U 10035E 13024.74454424 .00001645 00000-0 20981-3 0 7444
2 36799 098.0449 108.5997 0014883 169.7746 190.3739 14.82801899137310
STUDSAT
1 36801U 10035G 13024.82323083 .00004879 00000-0 55361-3 0 5768
2 36801 098.0592 110.6557 0012131 154.6098 205.5707 14.86759705137424
FO-69
1 37227U 0 13024.34423686 .00000427 00000-0 67825-4 0 00465
2 37227 071.9686 183.8383 0018511 267.4168 092.4874 14.77351735007660
FO-70
1 37380U 0 13024.59074008 .00000364 00000-0 59281-4 0 00504
2 37380 071.9722 184.1352 0019066 264.4596 095.4367 14.77094328007773
ALMASAT-1
1 38078U 12006B 13024.82722295 .00011205 00000-0 29015-3 0 9441
2 38078 069.4806 171.9046 0723497 329.3412 026.7163 14.18357343 48876
XATCOBEO
1 38082U 12006F 13024.77555245 .00028555 00000-0 60994-3 0 8737
2 38082 069.4832 159.9909 0646802 322.7496 033.0350 14.38381121 49195
NOAA-10
1 16969U 86073A 13024.15487216 .00000035 00000-0 31681-4 0 2229
2 16969 098.5607 055.0296 0011210 309.6032 080.9402 14.27610937371399
NOAA-11
1 19531U 88089A 13024.48790725 -.00000007 00000-0 18608-4 0 2172
2 19531 098.7195 110.8654 0010227 314.8094 123.0791 14.15000615255802
NOAA-12
1 21263U 91032A 13024.56531502 .00000040 00000-0 35570-4 0 6946
2 21263 098.7117 050.9970 0012908 279.0529 080.9182 14.25543864128093
MET-3/5
1 21655U 91056A 13024.21541301 .00000007 00000-0 -15288-4 0 6035
2 21655 082.5586 356.0145 0014471 127.8404 232.4030 13.17043737 30982
MET-2/21
1 22782U 93055A 13024.09692181 .00000013 00000-0 -15167-5 0 6457
2 22782 082.5467 217.2295 0021452 251.6936 257.1629 13.83697736979717
OKEAN-4
1 23317U 94066A 13024.86618873 .00000914 00000-0 10608-3 0 1206
2 23317 082.5391 183.8891 0020995 344.5030 015.5541 14.84219684987684
NOAA-14
1 23455U 94089A 13024.47621675 .00000033 00000-0 40503-4 0 1755
2 23455 098.8129 111.0478 0010288 048.9738 311.2323 14.13891071932068
NOAA-15
1 25338U 98030A 13024.49564663 .00000149 00000-0 82268-4 0 5871
2 25338 098.7111 015.5710 0010361 181.3509 178.7651 14.25172278764378
RESURS
1 25394U 98043A 13023.52376810 -.00000006 00000-0 15025-4 0 2894
2 25394 098.3456 006.4278 0000807 018.1094 129.3818 14.24318446755764
FENGYUN1
1 25730U 99025A 13024.46225639 .00001725 00000-0 99797-3 0 7929
2 25730 098.8669 345.8760 0023814 087.0359 061.1761 14.10091349705789
OKEAN-0
1 25860U 99039A 13024.53366448 .00000263 00000-0 47048-4 0 8504
2 25860 097.9720 349.0860 0000935 128.4672 349.9521 14.74462061727187
NOAA-16
1 26536U 00055A 13024.49498037 -.00000084 00000-0 -20360-4 0 659
2 26536 099.0649 075.6989 0010561 176.7358 183.3890 14.12830703636281
NOAA-17
1 27453U 02032A 13024.49151051 .00000157 00000-0 85347-4 0 9987
2 27453 098.3203 046.1457 0010994 223.7886 136.2423 14.24534655550262
NOAA-18
1 28654U 05018A 13024.33815407 -.00000045 00000-0 47679-6 0 4792
2 28654 099.0776 350.6334 0013540 252.5838 107.3858 14.11762145395769
NOAA-19
1 33591U 09005A 13024.25406639 .00000347 00000-0 21542-3 0 6640
2 33591 098.8869 327.5601 0014711 115.0871 245.1850 14.11450454204192
HUBBLE
1 20580U 90037B 13023.73208723 .00001318 00000-0 82740-4 0 1603
2 20580 028.4691 139.5192 0003334 243.1603 116.8646 15.03235172 47933
ISS
1 25544U 98067A 13024.95775463 .00010657 00000-0 18023-3 0 847
2 25544 051.6490 099.8386 0013499 195.1469 161.1642 15.52082802812455
CO-58
1 28895U 05043F 13024.05565907 .00000570 00000-0 12512-3 0 3878
2 28895 097.8865 246.2719 0017792 172.5665 187.5832 14.60944253385903
FALCON
1 30776U 07006E 13024.41302957 .00002858 00000-0 17755-3 0 5354
2 30776 035.4325 003.7459 0002003 185.9341 309.9610 15.09436693323676
MAST
1 31126U 07012K 13024.01222895 .00000309 00000-0 78511-4 0 6650
2 31126 097.8753 028.2234 0093988 141.7351 219.0564 14.54416452306365
CAPE1
1 31130U 07012P 13023.95175155 .00000253 00000-0 67117-4 0 6774
2 31130 097.8878 024.4845 0101314 156.6577 203.9271 14.53279453305837
